Regional Weather Roundup
Issued by NWS

Home | Current Version | Previous Version | Graphics & Text | Print | Product List | Glossary On
Versions: 1 2 3 4 5 6 7 8 9 10 11 12 13 14 15 16 17 18 19 20 21 22 23 24 25 26 27 28 29 30 31 32 33 34 35 36 37 38 39 40 41 42 43 44 45 46 47 48 49 50
000
ASUS43 KIND 210909
RWRIN

WEATHER ROUNDUP FOR INDIANA
NATIONAL WEATHER SERVICE INDIANAPOLIS IN
400 AM EST TUE FEB 21 2017

NOTE: "FAIR" INDICATES FEW OR NO CLOUDS BELOW 12,000 FEET WITH NO
SIGNIFICANT WEATHER AND/OR OBSTRUCTIONS TO VISIBILITY.

* - STATION DOES NOT REPORT WEATHER SUCH AS PRECIPITATION OR FOG.

+ - STATION NOT QUALITY CONTROLLED BY THE NATIONAL WEATHER SERVICE.
    USE DATA WITH CAUTION...ESPECIALLY DEWPOINT AND RELATIVE
    HUMIDITY OBSERVATIONS.

INZ001>003-010>013-019-020-211000-
NORTHWEST INDIANA

CITY           SKY/WX    TMP DP  RH WIND       PRES   REMARKS
GARY /AIRPORT/ CLOUDY    59  46  60 S5        29.93S
KNOX *+        CLOUDY    54  28  37 S9        29.94S
LA PORTE +     CLOUDY    53  46  76 S6        29.95R
MICHIGAN CITY+ CLOUDY    55  45  67 S10       29.93S
MONTICELLO +   CLOUDY    53  46  78 CALM      29.94F
RENSSELAER +   CLOUDY    54  48  82 S6        29.94S
VALPARAISO     CLOUDY    54  47  77 S5        29.94F

$$

LMZ046-743>745-211000-
SOUTHERN LAKE MICHIGAN

STATION/POSITION TIME  TEMP    WIND        PRES    WAVE
                       AIR SEA DIR/SP/G            HT
                 (UTC) (F)     (DEG/KT/KT) (MB)    (FT)
BURNS HARBOR     0901   56     190/ 11/ 20 1013.5
MICHIGAN CITY    0840   57     150/ 15/ 19   N/A

$$

INZ004-005-014>016-021>024-211000-
NORTH CENTRAL INDIANA

CITY           SKY/WX    TMP DP  RH WIND       PRES   REMARKS
GOSHEN         CLOUDY    50  39  66 SE8       29.95S
LOGANSPORT +   MOCLDY    52  45  76 S5        29.97S
PERU/GRISSOM   PTCLDY    51  46  80 S7        29.95S
ROCHESTER +    CLOUDY    55  43  62 S7        29.97R
SOUTH BEND     CLOUDY    52  43  71 S9        29.96S
WARSAW +       CLOUDY    50  39  66 S3        29.96S

$$

INZ006>009-017-018-025>027-211000-
NORTHEAST INDIANA

CITY           SKY/WX    TMP DP  RH WIND       PRES   REMARKS
ANGOLA *+      CLEAR     43  37  81 SE5       29.97S
AUBURN +       CLOUDY    41  36  81 CALM      29.99S
FORT WAYNE     CLOUDY    48  41  76 SE3       29.98F
HUNTINGTON +   MOCLDY    49  41  72 CALM      29.97S
KENDALLVILLE + PTCLDY    44  38  79 SE5       29.98S

$$

INZ028-029-035-036-043>045-051>053-211000-
WEST CENTRAL INDIANA

CITY           SKY/WX    TMP DP  RH WIND       PRES   REMARKS
GREENCASTLE +  CLOUDY    50  45  81 SE5       29.96F
LAFAYETTE      CLOUDY    55  47  74 S3        29.94F
TERRE HAUTE    CLOUDY    49  44  83 SE3       29.96S

$$

INZ030>032-037>040-046>048-054>057-064-065-211000-
CENTRAL INDIANA

CITY           SKY/WX    TMP DP  RH WIND       PRES   REMARKS
FRANKFORT +    CLOUDY    56  48  74 S8        29.98S
GREENWOOD *+   CLOUDY    53  47  82 SE7       29.98F
INDIANAPOLIS   CLOUDY    53  45  74 SE6       29.97F
-EAGLE CREEK   CLOUDY    55  45  68 S5        29.97F
KOKOMO +       CLOUDY    51  44  77 S8        29.98R
MARION +       PTCLDY    51  41  69 S9        29.98S
MT COMFORT *+  CLOUDY    50  43  76 S6        29.98F
SHELBYVILLE    CLOUDY    53  43  68 SE7       29.98F
ZIONSVILLE +   MOCLDY    53  46  75 S6        29.97F

$$

INZ033-034-041-042-049-050-058-059-211000-
EAST CENTRAL INDIANA

CITY           SKY/WX    TMP DP  RH WIND       PRES   REMARKS
MUNCIE         PTCLDY    56  40  55 S8        29.98S

$$

INZ060-061-067>069-081>083-085>088-211000-
SOUTHWEST INDIANA

CITY           SKY/WX    TMP DP  RH WIND       PRES   REMARKS
EVANSVILLE     CLOUDY    53  46  77 CALM      29.96F
HUNTINGBURG *+ CLOUDY    56  45  66 SE3         N/A
WASHINGTON +   CLOUDY    52  44  74 S7        29.96S

$$

INZ062-063-066-070>080-084-089>092-211000-
SOUTH CENTRAL AND SOUTHEAST INDIANA

CITY           SKY/WX    TMP DP  RH WIND       PRES   REMARKS
BEDFORD +      CLOUDY   N/A N/A N/A SE6       29.97F
BLOOMINGTON    CLOUDY    56  44  64 SE7       29.97F
MADISON *+     PTCLDY    54  41  62 E6        30.01F
NORTH VERNON + CLOUDY    55  43  62 SE6       30.00F
SEYMOUR +      CLOUDY    50  45  81 S3        29.99F

$$





USA.gov is the U.S. government's official web portal to all federal, state and local government web resources and services.